Orbital Elements
Epoch 2007 Apr. 10.0 TT = JDT 2454200.5
T 2007 Apr. 28.39842 TT MPC
q 0.5912363 (2000.0) P Q
z +0.0017243 Peri. 292.69170 +0.33343712 -0.88153572
+/-0.0000019 Node 226.79044 -0.60469449 -0.47196969
e 0.9989805 Incl. 152.70457 -0.72330095 -0.01180596
From 100 observations 2006 Nov. 20-2007 June 12, mean residual 0".6.
|